Mecheria, Algeria

9:42 AM CET on December 06, 2019 (GMT +0100)
Mecheria

Weather History for DAAY - June, 2019

Change the Weather History Date:

Sunday, June 9, 2019

  Actual Average (WUND) Record (WUND)
Temperature  
Mean Temperature 76 °F -  
Max Temperature 93 °F - - (-1)
Min Temperature 58 °F - - (-1)
Cooling Degree Days 10    
Growing Degree Days 26 (Base 50)    
Moisture  
Dew Point 47 °F    
Average Humidity 41    
Maximum Humidity 88    
Minimum Humidity 6    
Precipitation  
Precipitation 0.00 in - - ()
Sea Level Pressure  
Sea Level Pressure 30.14 in    
Wind  
Wind Speed 8 mph ()    
Max Wind Speed 28 mph    
Max Gust Speed -    
Visibility 5.6 miles    
Events      
Averages and records for this station are not official NWS values.
T = Trace of Precipitation, MM = Missing Value Source: Averaged Metar Reports

Daily Weather History Graph

Daily Weather History Graph

Search for Another Location

Airport or City:

Astronomy

Jun. 09, 2019 Rise Set
Actual Time 5:50 AM CET 8:09 PM CET
Civil Twilight 5:21 AM CET 8:38 PM CET
Nautical Twilight 4:46 AM CET 9:14 PM CET
Astronomical Twilight 4:07 AM CET 9:52 PM CET
Moon 12:02 PM CET (6/9) 12:49 AM CET (6/9)
Length of Visible Light 15h 17m
Length of Day
14h 19m
Waxing Crescent, 41% of the Moon is Illuminated
Jun 9
Waxing Crescent
Jun 10
First Quarter
Jun 17
Full
Jun 25
Last Quarter
Jul 2
New

Hourly Weather History & Observations

Time (CET) Temp. Heat Index Dew Point Humidity Pressure Visibility Wind Dir Wind Speed Gust Speed Precip Events Conditions
12:00 AM 71.6 °F - 50.0 °F 46% 30.18 in - North 16.1 mph - N/A   Clear
1:00 AM 69.8 °F - 51.8 °F 53% 30.18 in - North 9.2 mph - N/A   Clear
4:00 AM 62.6 °F - 51.8 °F 68% 30.15 in - Calm Calm - N/A   Clear
5:00 AM 60.8 °F - 50.0 °F 68% 30.15 in - Calm Calm - N/A   Clear
6:00 AM 59.0 °F - 50.0 °F 72% 30.15 in - Calm Calm - N/A   Clear
7:00 AM 61 °F - 56 °F 80%  in 6 mi NNE 6.9 mph - -   Clear
7:00 AM 60.8 °F - 57.2 °F 88% 30.15 in - NNE 6.9 mph - N/A   Clear
8:00 AM 64.4 °F - 59.0 °F 83% 30.15 in - NNE 9.2 mph - N/A   Clear
9:00 AM 69.8 °F - 60.8 °F 73% 30.15 in - Calm Calm - N/A   Clear
10:00 AM 74 °F - 61 °F 54%  in 6 mi NNE 4.6 mph - -   Clear
10:00 AM 73.4 °F - 60.8 °F 65% 30.18 in - NNE 4.6 mph - N/A   Clear
11:00 AM 78.8 °F - 59.0 °F 51% 30.15 in - Calm Calm - N/A   Clear
12:00 PM 84.2 °F 83.5 °F 57.2 °F 40% 30.15 in - Calm Calm - N/A   Clear
1:00 PM 88 °F - 47 °F 15%  in 6 mi SSW 4.6 mph - -   Clear
1:00 PM 87.8 °F - 46.4 °F 24% 30.15 in - SSW 4.6 mph - N/A   Clear
2:00 PM 91.4 °F - 46.4 °F 21% 30.15 in - SSW 13.8 mph - N/A   Clear
3:00 PM 91.4 °F - 33.8 °F 13% 30.12 in - WNW 4.6 mph - N/A   Clear
4:00 PM 92 °F - 33 °F 6%  in 6 mi WNW 13.8 mph - -   Clear
4:00 PM 93.2 °F - 33.8 °F 12% 30.12 in - WNW 13.8 mph - N/A   Clear
5:00 PM 93.2 °F - 32.0 °F 11% 30.09 in - WNW 13.8 mph - N/A   Clear
6:00 PM 91.4 °F - 28.4 °F 10% 30.09 in - WNW 16.1 mph - N/A   Clear
7:00 PM 91 °F - 33 °F 6%  in 6 mi NNW 20.7 mph - -  
7:00 PM 91.4 °F - 33.8 °F 13% 30.09 in - NNW 20.7 mph - N/A   Clear
8:00 PM 78.8 °F - 37.4 °F 23% 30.09 in 5.0 mi North 27.6 mph - N/A   Unknown
9:00 PM 75.2 °F - 41.0 °F 29% 30.09 in 5.0 mi North 23.0 mph - N/A   Unknown
10:00 PM 71.6 °F - 46.4 °F 41% 30.12 in 5.0 mi North 20.7 mph - N/A   Unknown
11:00 PM 69.8 °F - 48.2 °F 46% 30.15 in 5.0 mi North 20.7 mph - N/A   Unknown